Hourly Weather Horbanivka

Today, 22 April, Thursday

Time Temperature Precipitation Wind Pressure Humidity
00:00 +7°C° 0 mm 3 mps 738 mmHg 77%
01:00 +7°C° 0 mm 3 mps 738 mmHg 78%
02:00 +5°C° 0 mm 3 mps 738 mmHg 79%
03:00 +5°C° 0 mm 3 mps 738 mmHg 80%
04:00 +5°C° 0 mm 3 mps 738 mmHg 82%
05:00 +5°C° 0 mm 3 mps 738 mmHg 83%
06:00 +7°C° 0 mm 3 mps 739 mmHg 77%
07:00 +9°C° 0 mm 3 mps 739 mmHg 71%
08:00 +11°C° 0 mm 4 mps 739 mmHg 66%
09:00 +12°C° 0 mm 4 mps 739 mmHg 60%
10:00 +13°C° 0 mm 4 mps 739 mmHg 54%
11:00 +15°C° 0 mm 5 mps 739 mmHg 48%
12:00 +15°C° 0 mm 5 mps 739 mmHg 48%
13:00 +16°C° 0 mm 5 mps 738 mmHg 47%
14:00 +16°C° 0 mm 5 mps 738 mmHg 46%
15:00 +15°C° 0 mm 5 mps 738 mmHg 49%
16:00 +15°C° 0 mm 5 mps 738 mmHg 52%
17:00 +15°C° 0 mm 5 mps 737 mmHg 55%
18:00 +13°C° 0.2 mm 5 mps 738 mmHg 63%
19:00 +10°C° 0.2 mm 5 mps 738 mmHg 72%
20:00 +9°C° 0.2 mm 5 mps 738 mmHg 81%
21:00 +8°C° 0.1 mm 4 mps 738 mmHg 83%
22:00 +8°C° 0.1 mm 4 mps 738 mmHg 85%
23:00 +7°C° 0.1 mm 4 mps 738 mmHg 86%

Tomorrow, 23 April, Friday

Time Temperature Precipitation Wind Pressure Humidity
00:00 +6°C° 0 mm 4 mps 738 mmHg 88%
01:00 +6°C° 0 mm 4 mps 738 mmHg 89%
02:00 +5°C° 0 mm 4 mps 739 mmHg 90%
03:00 +5°C° 0.1 mm 3 mps 739 mmHg 87%
04:00 +4°C° 0.1 mm 3 mps 739 mmHg 85%
05:00 +4°C° 0.1 mm 3 mps 739 mmHg 82%
06:00 +4°C° 0.1 mm 3 mps 739 mmHg 78%
07:00 +6°C° 0.1 mm 2 mps 740 mmHg 75%
08:00 +6°C° 0.1 mm 2 mps 740 mmHg 71%
09:00 +7°C° 0 mm 2 mps 740 mmHg 65%
10:00 +8°C° 0 mm 3 mps 740 mmHg 59%
11:00 +8°C° 0 mm 3 mps 740 mmHg 53%
12:00 +9°C° 0 mm 3 mps 740 mmHg 50%
13:00 +9°C° 0 mm 3 mps 740 mmHg 48%
14:00 +10°C° 0 mm 3 mps 740 mmHg 46%
15:00 +10°C° 0.2 mm 4 mps 740 mmHg 48%
16:00 +9°C° 0.2 mm 5 mps 740 mmHg 50%
17:00 +8°C° 0.2 mm 5 mps 740 mmHg 52%
18:00 +7°C° 0.1 mm 4 mps 740 mmHg 60%
19:00 +5°C° 0.1 mm 4 mps 740 mmHg 68%
20:00 +4°C° 0.1 mm 3 mps 741 mmHg 76%
21:00 +3°C° 0 mm 3 mps 741 mmHg 76%
22:00 +3°C° 0 mm 3 mps 741 mmHg 76%
23:00 +2°C° 0 mm 3 mps 741 mmHg 76%

Day after tomorrow, 24 April, Saturday

Time Temperature Precipitation Wind Pressure Humidity
00:00 +2°C° 0 mm 3 mps 741 mmHg 77%
01:00 +2°C° 0 mm 3 mps 741 mmHg 77%
02:00 +2°C° 0 mm 3 mps 740 mmHg 77%
03:00 0°C° 0 mm 4 mps 740 mmHg 81%
04:00 0°C° 0 mm 4 mps 740 mmHg 84%
05:00 0°C° 0 mm 5 mps 740 mmHg 87%
06:00 0°C° 0 mm 5 mps 741 mmHg 79%
07:00 +1°C° 0 mm 5 mps 741 mmHg 70%
08:00 +2°C° 0 mm 6 mps 742 mmHg 62%
09:00 +3°C° 0 mm 6 mps 742 mmHg 54%
10:00 +4°C° 0 mm 7 mps 742 mmHg 47%
11:00 +5°C° 0 mm 7 mps 742 mmHg 39%
12:00 +5°C° 0 mm 7 mps 742 mmHg 39%
13:00 +6°C° 0 mm 7 mps 742 mmHg 39%
14:00 +6°C° 0 mm 7 mps 742 mmHg 39%
15:00 +7°C° 0 mm 6 mps 742 mmHg 42%
16:00 +5°C° 0 mm 6 mps 742 mmHg 45%
17:00 +5°C° 0 mm 6 mps 742 mmHg 49%
18:00 +5°C° 0 mm 4 mps 743 mmHg 54%
19:00 +4°C° 0 mm 3 mps 743 mmHg 59%
20:00 +4°C° 0 mm 2 mps 743 mmHg 64%
21:00 +3°C° 0 mm 2 mps 743 mmHg 66%
22:00 +3°C° 0 mm 2 mps 743 mmHg 67%
23:00 +2°C° 0 mm 2 mps 743 mmHg 68%

25 April, Sunday

Time Temperature Precipitation Wind Pressure Humidity
00:00 +1°C° 0 mm 3 mps 742 mmHg 69%
01:00 +1°C° 0 mm 3 mps 742 mmHg 69%
02:00 +1°C° 0 mm 3 mps 742 mmHg 70%
03:00 +1°C° 0 mm 3 mps 742 mmHg 70%
04:00 +1°C° 0 mm 3 mps 741 mmHg 69%
05:00 +1°C° 0 mm 3 mps 741 mmHg 68%
06:00 +3°C° 0 mm 3 mps 741 mmHg 64%
07:00 +4°C° 0 mm 4 mps 741 mmHg 60%
08:00 +6°C° 0 mm 4 mps 741 mmHg 56%
09:00 +6°C° 0 mm 4 mps 740 mmHg 59%
10:00 +7°C° 0 mm 5 mps 740 mmHg 62%
11:00 +7°C° 0 mm 5 mps 740 mmHg 65%
12:00 +8°C° 0.2 mm 4 mps 740 mmHg 63%
13:00 +8°C° 0.2 mm 4 mps 740 mmHg 62%
14:00 +8°C° 0.2 mm 4 mps 740 mmHg 61%
15:00 +8°C° 0.1 mm 4 mps 740 mmHg 61%
16:00 +8°C° 0.1 mm 4 mps 740 mmHg 61%
17:00 +7°C° 0.1 mm 5 mps 740 mmHg 60%
18:00 +6°C° 0 mm 4 mps 740 mmHg 64%
19:00 +4°C° 0 mm 3 mps 740 mmHg 68%
20:00 +4°C° 0 mm 2 mps 740 mmHg 71%
21:00 +3°C° 0 mm 2 mps 740 mmHg 71%
22:00 +3°C° 0 mm 2 mps 740 mmHg 70%
23:00 +2°C° 0 mm 2 mps 740 mmHg 70%

26 April, Monday

Time Temperature Precipitation Wind Pressure Humidity
00:00 +2°C° 0 mm 2 mps 740 mmHg 70%
01:00 +2°C° 0 mm 2 mps 740 mmHg 71%
02:00 +2°C° 0 mm 2 mps 740 mmHg 72%
03:00 +2°C° 0 mm 2 mps 740 mmHg 76%
04:00 0°C° 0 mm 3 mps 740 mmHg 81%
05:00 -1°C° 0 mm 3 mps 739 mmHg 86%
06:00 0°C° 0 mm 4 mps 740 mmHg 76%
07:00 +1°C° 0 mm 5 mps 740 mmHg 67%
08:00 +3°C° 0 mm 6 mps 740 mmHg 57%
09:00 +4°C° 0 mm 6 mps 740 mmHg 52%
10:00 +5°C° 0 mm 6 mps 740 mmHg 47%
11:00 +6°C° 0 mm 7 mps 740 mmHg 42%
12:00 +6°C° 0 mm 7 mps 739 mmHg 41%
13:00 +6°C° 0 mm 7 mps 739 mmHg 41%
14:00 +6°C° 0 mm 7 mps 739 mmHg 40%
15:00 +7°C° 0 mm 6 mps 739 mmHg 41%
16:00 +7°C° 0 mm 6 mps 739 mmHg 42%
17:00 +7°C° 0 mm 5 mps 739 mmHg 43%
18:00 +5°C° 0 mm 4 mps 739 mmHg 48%
19:00 +5°C° 0 mm 2 mps 739 mmHg 53%
20:00 +5°C° 0 mm 1 mps 739 mmHg 58%
21:00 +4°C° 0 mm 1 mps 739 mmHg 58%
22:00 +4°C° 0 mm 1 mps 739 mmHg 59%
23:00 +2°C° 0 mm 2 mps 739 mmHg 60%

27 April, Tuesday

Time Temperature Precipitation Wind Pressure Humidity
00:00 +2°C° 0 mm 2 mps 739 mmHg 61%
01:00 +2°C° 0 mm 2 mps 739 mmHg 62%
02:00 +2°C° 0 mm 2 mps 739 mmHg 63%
03:00 +1°C° 0 mm 2 mps 739 mmHg 65%
04:00 +1°C° 0 mm 2 mps 739 mmHg 66%
05:00 +1°C° 0 mm 2 mps 739 mmHg 67%
06:00 +3°C° 0 mm 2 mps 739 mmHg 62%
07:00 +6°C° 0 mm 1 mps 739 mmHg 57%
08:00 +8°C° 0 mm 1 mps 739 mmHg 52%
09:00 +8°C° 0 mm 2 mps 739 mmHg 49%
10:00 +10°C° 0 mm 2 mps 739 mmHg 46%
11:00 +12°C° 0 mm 2 mps 738 mmHg 43%
12:00 +12°C° 0 mm 2 mps 738 mmHg 43%
13:00 +12°C° 0 mm 3 mps 738 mmHg 43%
14:00 +13°C° 0 mm 3 mps 737 mmHg 42%
15:00 +12°C° 0 mm 4 mps 737 mmHg 47%
16:00 +12°C° 0 mm 4 mps 737 mmHg 52%
17:00 +10°C° 0 mm 5 mps 737 mmHg 57%
18:00 +9°C° 0 mm 5 mps 736 mmHg 65%
19:00 +8°C° 0 mm 4 mps 736 mmHg 74%
20:00 +6°C° 0 mm 4 mps 736 mmHg 83%
21:00 +6°C° 0.1 mm 4 mps 736 mmHg 85%
22:00 +6°C° 0.1 mm 4 mps 735 mmHg 88%
23:00 +6°C° 0.1 mm 4 mps 735 mmHg 90%
Show more

We Need Your Consent

Meteoprog and our Service Providers may store and access personal data such as cookies, device identifiers or other similar technologies on your device and process such data to personalise content and ads, as well as provide social media features and to analyse the traffic.

  • Store and/or access information on your device

    Cookies, device identifiers or other information can be stored or accessed on your device for the purposes indicated above.

  • Personalised ads and content, ad and content measurement, audience insights, and products development

    Ads and content can be personalised based on a profile. More data can be added to better personalise ads and content. Ad and content performance can be measured. Insights about the audience who saw the ads and content can be derived. Such data can be used to develop or improve user’s experience, systems and software.

By clicking ‘I Agree’ you will allow the use of indicated cookies, device identifiers, web beacons or other similar technologies. Your settings can be changed in the browser on your device.

For certain purposes, legitimate interests may be relied on, rather than consent. You can read more about this in our Privacy and Cookie Policy.